[[{"header":{"parameterUnit":"m.s-1","parameterCategory":1,"la1":30.2992,"la2":30.254,"lo1":-89.0895,"lo2":-89.0443,"dy":0.0025,"dx":0.0025,"nx":19,"ny":19,"refTime":"2026-04-27T21:00:00:Z","depth":0,"parameterNumber":2,"parameterNumberName":"U-component_of_WINDS"},"data":[0,0,0,-2.2482,-2.2484,-2.2589,-2.2589,-2.2719,-2.272,0,0,0,0,0,0,0,0,0,0,0,-2.2446,-2.2446,-2.2481,-2.2484,-2.2589,-2.2589,-2.2719,-2.272,0,0,0,0,0,0,0,0,0,0,0,-2.2445,-2.2446,-2.2447,-2.2484,-2.2589,-2.2589,-2.2718,-2.2641,0,0,0,0,0,0,0,0,0,0,-2.254,-2.2502,-2.2446,-2.2447,-2.2485,-2.2589,-2.259,-2.2638,-2.2646,-2.2669,0,-2.2686,0,-2.2705,-2.2728,-2.2729,0,0,0,-2.2488,-2.2495,-2.2527,-2.2447,-2.2486,-2.2589,-2.2543,-2.2643,-2.2652,-2.268,-2.2688,-2.2693,-2.2707,-2.2729,-2.273,-2.2842,-2.2842,0,0,-2.2482,-2.2462,-2.2521,-2.2533,-2.2515,-2.2539,-2.2546,-2.2648,-2.2656,-2.2688,-2.2696,-2.2709,-2.273,-2.2731,-2.2842,-2.2842,0,0,0,-2.2463,-2.2458,-2.2488,-2.2528,-2.2547,-2.2542,-2.255,-2.2652,-2.2663,-2.2697,-2.2711,-2.2731,-2.2732,-2.2841,-2.2842,-2.2838,0,0,0,-2.2459,-2.2447,-2.2486,-2.2475,-2.2545,-2.26,-2.2551,-2.2656,-2.2668,-2.271,-2.2731,-2.2733,-2.2841,-2.2842,-2.2837,-2.2839,0,0,0,-2.2441,-2.2445,-2.2458,-2.2473,-2.2518,-2.2599,-2.2617,-2.2659,-2.2676,-2.2729,-2.2734,-2.2841,-2.2842,-2.2836,-2.2838,-2.2861,0,0,0,-2.2415,-2.2454,-2.2458,-2.2507,-2.2517,-2.2596,-2.2616,-2.2677,-2.2721,-2.2731,-2.2841,-2.2842,-2.2836,-2.2837,-2.2861,-2.2876,-2.2881,0,0,-2.2453,-2.2458,-2.2488,-2.2495,-2.2567,-2.2581,-2.2655,-2.2715,-2.274,-2.2807,-2.281,-2.2837,-2.2838,-2.2861,-2.292,-2.2923,0,0,0,-2.2494,-2.2515,-2.2539,-2.2579,-2.2626,-2.2666,-2.2717,-2.274,-2.2798,-2.2769,-2.2854,-2.2855,-2.2869,-2.2878,-2.2881,-2.2895,-2.2845,-2.2845,-2.2845,-2.2518,-2.2546,-2.2598,-2.2639,-2.2679,-2.2731,-2.2767,-2.2806,-2.2824,-2.2844,-2.2863,-2.2895,-2.2904,-2.2907,-2.292,-2.2875,-2.2875,-2.2875,-2.2875,-2.2575,-2.2609,-2.2632,-2.269,-2.272,-2.2771,-2.2824,-2.2835,-2.2887,-2.2882,-2.2897,-2.2888,-2.291,-2.2923,-2.2875,-2.2875,-2.2875,-2.2875,-2.2875,-2.2593,-2.2614,-2.264,-2.2702,-2.2748,-2.2789,-2.2838,-2.2864,-2.289,-2.2905,-2.2928,-2.2928,-2.293,-2.2914,-2.2914,-2.2914,-2.2914,-2.2914,-2.2915,-2.26,-2.263,-2.2666,-2.2719,-2.2749,-2.2792,-2.2847,-2.2878,-2.2919,-2.2935,-2.2935,-2.295,-2.2907,-2.2894,-2.2916,-2.2916,-2.2916,-2.2916,-2.2916,-2.2644,-2.2638,-2.2694,-2.2724,-2.2789,-2.2832,-2.2866,-2.2927,-2.2957,-2.298,-2.2994,-2.2958,-2.2965,-2.2962,-2.2952,-2.2988,-2.2988,-2.2988,-2.2988,-2.2657,-2.2664,-2.2727,-2.2773,-2.2821,-2.2858,-2.2922,-2.2966,-2.3011,-2.3031,-2.3031,-2.302,-2.3017,-2.3026,-2.3022,-2.3013,-2.3063,-2.3063,-2.3063,-2.2686,-2.2698,-2.2746,-2.2788,-2.2841,-2.2887,-2.2948,-2.3001,-2.3052,-2.3067,-2.3048,-2.3045,-2.3028,-2.3021,-2.3033,-2.3027,-2.3011,0,0]},{"header":{"parameterUnit":"m.s-1","parameterCategory":1,"la1":30.2992,"la2":30.254,"lo1":-89.0895,"lo2":-89.0443,"dy":0.0025,"dx":0.0025,"nx":19,"ny":19,"refTime":"2026-04-27T21:00:00:Z","depth":0,"parameterNumber":3,"parameterNumberName":"V-component_of_WINDS"},"data":[0,0,0,4.9837,4.984,4.9999,5.0,5.0195,5.0197,0,0,0,0,0,0,0,0,0,0,0,4.9788,4.9789,4.9837,4.9841,4.9999,5.0,5.0195,5.0197,0,0,0,0,0,0,0,0,0,0,0,4.9787,4.9789,4.9791,4.9841,4.9999,5.0,5.0195,5.0077,0,0,0,0,0,0,0,0,0,0,4.9924,4.9877,4.9789,4.9791,4.9842,4.9999,5.0,5.0071,5.0084,5.0121,0,5.0155,0,5.0179,5.021,5.0211,0,0,0,4.9842,4.9866,4.9911,4.9791,4.9844,4.9999,4.9928,5.0079,5.0093,5.0138,5.0158,5.0166,5.0183,5.0211,5.0212,5.0427,5.0428,0,0,4.9833,4.9815,4.9901,4.9921,4.9899,4.9923,4.9933,5.0088,5.0107,5.0159,5.017,5.0186,5.0212,5.0214,5.0426,5.0428,0,0,0,4.9807,4.9809,4.985,4.9913,4.9942,4.9927,4.9939,5.01,5.0116,5.0172,5.0188,5.0213,5.0216,5.0425,5.0427,5.0459,0,0,0,4.9802,4.9794,4.9846,4.9837,4.9939,5.0024,4.9948,5.0105,5.0123,5.0187,5.0214,5.0218,5.0424,5.0426,5.0456,5.0477,0,0,0,4.9778,4.9791,4.9814,4.9835,4.9903,5.0022,5.0046,5.0109,5.0133,5.0211,5.0218,5.0424,5.0426,5.0453,5.0473,5.053,0,0,0,4.9747,4.9838,4.9814,4.9921,4.9902,5.0041,5.0045,5.0149,5.022,5.0215,5.0425,5.0427,5.0452,5.047,5.0527,5.0576,5.0594,0,0,4.9852,4.985,4.9915,4.9898,5.0037,5.0018,5.0161,5.0242,5.0264,5.0371,5.0376,5.0457,5.0473,5.0529,5.0702,5.0717,0,0,0,4.9942,4.9989,5.0029,5.0097,5.0162,5.0219,5.028,5.031,5.0402,5.0316,5.0493,5.0503,5.0537,5.0561,5.0573,5.0604,5.0437,5.0437,5.0436,5.0065,5.0091,5.0199,5.0244,5.0309,5.0372,5.0426,5.0476,5.0481,5.0522,5.0555,5.0657,5.0685,5.0694,5.0725,5.0582,5.0582,5.0582,5.0582,5.0222,5.0292,5.0297,5.0405,5.0431,5.052,5.0583,5.0583,5.0669,5.0634,5.0666,5.0626,5.0709,5.0738,5.0585,5.0584,5.0584,5.0584,5.0583,5.0306,5.0344,5.038,5.0481,5.0556,5.0596,5.068,5.0699,5.0717,5.0748,5.0784,5.0784,5.0786,5.0764,5.0764,5.0764,5.0765,5.0765,5.0765,5.038,5.042,5.0489,5.0566,5.0612,5.0675,5.0738,5.0783,5.0838,5.0845,5.0845,5.0846,5.0713,5.068,5.0771,5.077,5.0769,5.0768,5.0768,5.0532,5.0501,5.0608,5.0654,5.0746,5.0819,5.0842,5.0932,5.0972,5.1012,5.1006,5.0905,5.0903,5.0894,5.0866,5.1,5.1,5.1,5.1,5.0604,5.0606,5.072,5.0793,5.0866,5.0899,5.1017,5.1065,5.111,5.1136,5.1119,5.1084,5.1073,5.1079,5.1065,5.104,5.1215,5.1215,5.1215,5.0699,5.0709,5.0808,5.0853,5.0926,5.0988,5.1099,5.1181,5.1225,5.1224,5.1157,5.1148,5.1091,5.1072,5.1071,5.1049,5.1003,0,0]}]]